Weather Roundup
Issued by NWS

Home | Current Version | Previous Version | Graphics & Text | Print | Product List | Glossary Off
Versions: 1 2 3 4 5 6 7 8 9 10 11 12 13 14 15 16 17 18 19 20 21 22 23 24 25 26 27 28 29 30 31 32 33 34 35 36 37 38 39 40 41 42 43 44 45 46 47 48 49 50

000
NZUS93 KARX 282159
HRRWXR

CURRENT HOURLY OBSERVATIONS ACROSS
MUCH OF THE UPPER MISSISSIPPI VALLEY
NATIONAL WEATHER SERVICE LA CROSSE WI
400 PM CST SUN DEC 28 2014


...SOUTHEAST MINNESOTA...


CITY           SKY/WX    TMP DP  RH WIND       PRES   REMARKS
ROCHESTER      CLEAR     17  11  77 W6        30.17R WCI   9
ROCHESTER/MAYO FAIR      22  14  71 CALM      30.17R
WINONA         CLOUDY    23  18  80 NW3       30.22R
AUSTIN         PTCLDY    19  14  79 CALM      30.17R
ALBERT LEA     CLEAR     19  16  86 NE3       30.17R
DODGE CENTER   PTCLDY    18  14  86 CALM      30.17R
PRESTON        CLEAR     18  12  80 CALM      30.16R
OWATONNA       CLEAR     18  12  79 CALM      30.18R
FARIBAULT      CLEAR     21  16  79 E5        30.20R WCI  15
$$

...ELSEWHERE IN MINNESOTA...


CITY           SKY/WX    TMP DP  RH WIND       PRES   REMARKS
MINNEAPOLIS    CLOUDY    23  14  68 N6        30.21R WCI  16
INTNL FALLS    CLEAR      0  -9  65 W8        30.25R WCI -14
DULUTH         CLEAR     10  -4  53 NW6       30.18R WCI   0
RED WING       CLOUDY    21  14  73 CALM      30.21R
REDWOOD FALLS  CLOUDY    25  18  74 VRB5      30.21R WCI  19
MANKATO        CLEAR     19  12  73 CALM      30.20R
WORTHINGTON    CLOUDY    18 -26  13 NE14      30.16R WCI   4
FAIRMONT       CLEAR     18  10  73 N9        30.18R WCI   6
$$

...SOUTHWEST WISCONSIN...


CITY           SKY/WX    TMP DP  RH WIND       PRES   REMARKS
LA CROSSE      CLOUDY    26  18  71 N10       30.20R WCI  16
PRAIRIE DU CHI CLEAR     31  19  58 SW3       30.17S
BOSCOBEL       CLEAR     32  19  58 SW3       30.17R
LONE ROCK      NOT AVBL
PLATTEVILLE    CLEAR     31  14  50 CALM      30.16S
FORT MC COY    MOCLDY    28  19  71 NW6       30.18R WCI  21
CAMP DOUGLAS   MOCLDY    27  23  86 W6        30.15R WCI  20
VIROQUA        FAIR      28  20  72 W3        30.14R
WIS DELLS      NOT AVBL
$$

...ELSEWHERE IN WISCONSIN...


CITY           SKY/WX    TMP DP  RH WIND       PRES   REMARKS
MILWAUKEE      PTCLDY    32  16  51 NW7       30.16R WCI  26
MADISON        PTCLDY    31  18  58 CALM      30.15R
GREEN BAY      CLOUDY    27  19  72 NW9       30.16R WCI  18
EAU CLAIRE     NOT AVBL
BLACK RVR FLS  CLOUDY    23  17  78 CALM      30.18R
MEDFORD        LGT SNOW  16  12  83 W3        30.13R
WAUSAU         CLOUDY    18  13  80 W7        30.13R HAZE    WCI   9
WIS RAPIDS     CLOUDY    23  16  74 N5        30.17R WCI  17
MARSHFIELD     CLOUDY    19  14  81 NW5       30.15R WCI  12
RICE LAKE      CLEAR     20   7  59 CALM      30.20R
$$

...NORTHEAST IOWA...


CITY           SKY/WX    TMP DP  RH WIND       PRES   REMARKS
DECORAH        CLEAR     28  21  74 NW3       30.14R
MASON CITY     CLEAR     20  14  77 NE6       30.18R WCI  12
CHARLES CITY   CLEAR     27  21  80 N6        30.17R WCI  20
OELWEIN        CLEAR     30  19  64 W5        30.16R WCI  25
$$

...ELSEWHERE IN IOWA...


CITY           SKY/WX    TMP DP  RH WIND       PRES   REMARKS
DES MOINES     PTCLDY    36  22  56 W3        30.14S
IOWA CITY      CLEAR     33  17  51 CALM      30.18S
FORT DODGE     PTCLDY    21  14  73 N6        30.16R WCI  14
$$

...NORTHERN ILLINOIS...


CITY           SKY/WX    TMP DP  RH WIND       PRES   REMARKS
CHICAGO-OHARE  PTCLDY    34  13  41 W9        30.16R WCI  27
CHICAGO-MIDWAY PTCLDY    34  17  50 SW7       30.18R WCI  28
MOLINE         CLEAR     36  17  46 CALM      30.17R
ROCKFORD       CLEAR     33  16  49 W7        30.19R WCI  27
PEORIA         CLEAR     35  17  47 CALM      30.20R
$$

NOTE: "FAIR" INDICATES FEW OR NO CLOUDS BELOW 12,000 FEET WITH NO
SIGNIFICANT WEATHER AND/OR OBSTRUCTIONS TO VISIBILITY. WIND
SPEEDS ARE IN MILES-PER-HOUR.



USA.gov is the U.S. government's official web portal to all federal, state and local government web resources and services.